Time,TemperatureF,DewpointF,PressureIn,WindDirection,WindDirectionDegrees,WindSpeedMPH,WindSpeedGustMPH,Humidity,HourlyPrecipIn,Conditions,Clouds,dailyrainin,SolarRadiationWatts/m^2,SoftwareType,DateUTC
2013-03-06 00:08:00,18.2,9.0,30.42,SE,146,1.0,-999.0,67,-99.99,,,0.00,0,weatherlink.com 1.10,2013-03-06 07:08:00,
2013-03-06 00:23:00,18.0,9.0,30.42,SSE,160,2.0,-999.0,68,-99.99,,,0.00,0,weatherlink.com 1.10,2013-03-06 07:23:00,
2013-03-06 00:38:00,17.6,9.0,30.41,SE,141,1.0,-999.0,69,-99.99,,,0.00,0,weatherlink.com 1.10,2013-03-06 07:38:00,
2013-03-06 00:53:00,17.6,9.0,30.41,ESE,118,4.0,-999.0,70,-99.99,,,0.00,0,weatherlink.com 1.10,2013-03-06 07:53:00,
2013-03-06 01:08:00,17.3,9.0,30.40,SE,136,5.0,-999.0,70,-99.99,,,0.00,0,weatherlink.com 1.10,2013-03-06 08:08:00,
2013-03-06 01:23:00,17.3,9.0,30.40,SE,140,3.0,-999.0,71,-99.99,,,0.00,0,weatherlink.com 1.10,2013-03-06 08:23:00,
2013-03-06 01:38:00,17.3,9.0,30.39,South,175,2.0,-999.0,71,-99.99,,,0.00,0,weatherlink.com 1.10,2013-03-06 08:38:00,
2013-03-06 01:54:00,16.7,9.0,30.38,SSE,154,3.0,-999.0,72,-99.99,,,0.00,0,weatherlink.com 1.10,2013-03-06 08:54:00,
2013-03-06 02:08:00,16.4,9.0,30.37,SSE,157,2.0,-999.0,73,-99.99,,,0.00,0,weatherlink.com 1.10,2013-03-06 09:08:00,
2013-03-06 02:24:00,15.9,9.0,30.36,SE,138,3.0,-999.0,74,-99.99,,,0.00,0,weatherlink.com 1.10,2013-03-06 09:24:00,
2013-03-06 02:39:00,15.9,9.0,30.35,SE,130,4.0,-999.0,74,-99.99,,,0.00,0,weatherlink.com 1.10,2013-03-06 09:39:00,
2013-03-06 02:54:00,15.7,9.0,30.34,SE,139,1.0,-999.0,75,-99.99,,,0.00,0,weatherlink.com 1.10,2013-03-06 09:54:00,
2013-03-06 03:09:00,15.5,9.0,30.34,SE,139,2.0,-999.0,75,-99.99,,,0.00,0,weatherlink.com 1.10,2013-03-06 10:09:00,
2013-03-06 03:24:00,15.5,9.0,30.33,South,190,2.0,-999.0,75,-99.99,,,0.00,0,weatherlink.com 1.10,2013-03-06 10:24:00,
2013-03-06 03:39:00,15.6,9.0,30.33,South,190,0.0,-999.0,76,-99.99,,,0.00,0,weatherlink.com 1.10,2013-03-06 10:39:00,
2013-03-06 03:54:00,15.4,9.0,30.33,South,190,2.0,-999.0,76,-99.99,,,0.00,0,weatherlink.com 1.10,2013-03-06 10:54:00,
2013-03-06 04:09:00,15.3,9.0,30.32,South,190,0.0,-999.0,76,-99.99,,,0.00,0,weatherlink.com 1.10,2013-03-06 11:09:00,
2013-03-06 04:24:00,15.3,9.0,30.32,South,185,0.0,-999.0,77,-99.99,,,0.00,0,weatherlink.com 1.10,2013-03-06 11:24:00,
2013-03-06 04:39:00,14.7,9.0,30.33,South,185,1.0,-999.0,77,-99.99,,,0.00,0,weatherlink.com 1.10,2013-03-06 11:39:00,
2013-03-06 04:54:00,14.4,8.0,30.32,South,185,2.0,-999.0,77,-99.99,,,0.00,0,weatherlink.com 1.10,2013-03-06 11:54:00,
2013-03-06 05:09:00,14.0,8.0,30.32,South,185,0.0,-999.0,78,-99.99,,,0.00,0,weatherlink.com 1.10,2013-03-06 12:09:00,
2013-03-06 05:24:00,13.7,8.0,30.32,South,184,0.0,-999.0,78,-99.99,,,0.00,0,weatherlink.com 1.10,2013-03-06 12:24:00,
2013-03-06 05:39:00,13.5,8.0,30.32,South,184,0.0,-999.0,79,-99.99,,,0.00,0,weatherlink.com 1.10,2013-03-06 12:39:00,
2013-03-06 05:54:00,13.6,8.0,30.32,South,184,0.0,-999.0,79,-99.99,,,0.00,0,weatherlink.com 1.10,2013-03-06 12:54:00,
2013-03-06 06:09:00,13.6,9.0,30.32,South,185,1.0,-999.0,80,-99.99,,,0.00,0,weatherlink.com 1.10,2013-03-06 13:09:00,
2013-03-06 06:24:00,14.0,9.0,30.32,South,184,1.0,-999.0,80,-99.99,,,0.00,0,weatherlink.com 1.10,2013-03-06 13:24:00,
2013-03-06 06:39:00,14.3,9.0,30.32,South,185,0.0,-999.0,80,-99.99,,,0.00,16,weatherlink.com 1.10,2013-03-06 13:39:00,
2013-03-06 06:54:00,14.3,9.0,30.32,South,185,0.0,-999.0,80,-99.99,,,0.00,35,weatherlink.com 1.10,2013-03-06 13:54:00,
2013-03-06 07:09:00,15.0,10.0,30.32,South,184,0.0,-999.0,80,-99.99,,,0.00,53,weatherlink.com 1.10,2013-03-06 14:09:00,
2013-03-06 07:24:00,15.5,10.0,30.32,South,185,0.0,-999.0,80,-99.99,,,0.00,60,weatherlink.com 1.10,2013-03-06 14:24:00,
2013-03-06 07:39:00,16.1,11.0,30.32,South,184,0.0,-999.0,80,-99.99,,,0.00,62,weatherlink.com 1.10,2013-03-06 14:39:00,
2013-03-06 07:54:00,16.8,12.0,30.32,South,185,0.0,-999.0,80,-99.99,,,0.00,111,weatherlink.com 1.10,2013-03-06 14:54:00,
2013-03-06 08:09:00,18.6,13.0,30.32,South,184,2.0,-999.0,78,-99.99,,,0.00,130,weatherlink.com 1.10,2013-03-06 15:09:00,
2013-03-06 08:24:00,20.3,14.0,30.31,South,184,0.0,-999.0,75,-99.99,,,0.00,113,weatherlink.com 1.10,2013-03-06 15:24:00,
2013-03-06 08:39:00,20.9,14.0,30.30,ESE,122,3.0,-999.0,73,-99.99,,,0.00,204,weatherlink.com 1.10,2013-03-06 15:39:00,
2013-03-06 08:54:00,21.8,14.0,30.29,East,94,2.0,-999.0,73,-99.99,,,0.00,327,weatherlink.com 1.10,2013-03-06 15:54:00,
2013-03-06 09:09:00,23.5,15.0,30.29,South,171,1.0,-999.0,70,-99.99,,,0.00,295,weatherlink.com 1.10,2013-03-06 16:09:00,
2013-03-06 09:25:00,24.5,16.0,30.28,ESE,118,5.0,-999.0,69,-99.99,,,0.00,301,weatherlink.com 1.10,2013-03-06 16:25:00,
2013-03-06 09:40:00,25.6,16.0,30.27,SE,134,2.0,-999.0,66,-99.99,,,0.00,114,weatherlink.com 1.10,2013-03-06 16:40:00,
2013-03-06 09:55:00,27.1,17.0,30.26,South,186,1.0,-999.0,65,-99.99,,,0.00,341,weatherlink.com 1.10,2013-03-06 16:55:00,
2013-03-06 10:10:00,28.4,17.0,30.26,SSE,155,4.0,-999.0,62,-99.99,,,0.00,156,weatherlink.com 1.10,2013-03-06 17:10:00,
2013-03-06 10:25:00,28.9,17.0,30.25,SE,127,4.0,-999.0,62,-99.99,,,0.00,434,weatherlink.com 1.10,2013-03-06 17:25:00,
2013-03-06 10:40:00,31.5,19.0,30.24,ESE,117,0.0,-999.0,59,-99.99,,,0.00,492,weatherlink.com 1.10,2013-03-06 17:40:00,
2013-03-06 10:55:00,32.8,19.0,30.23,SSW,195,1.0,-999.0,56,-99.99,,,0.00,406,weatherlink.com 1.10,2013-03-06 17:55:00,
2013-03-06 11:10:00,35.4,19.0,30.22,SE,144,1.0,-999.0,52,-99.99,,,0.00,452,weatherlink.com 1.10,2013-03-06 18:10:00,
2013-03-06 11:25:00,36.0,19.0,30.22,SE,146,4.0,-999.0,51,-99.99,,,0.00,591,weatherlink.com 1.10,2013-03-06 18:25:00,
2013-03-06 11:40:00,38.1,19.0,30.20,SE,128,5.0,-999.0,47,-99.99,,,0.00,647,weatherlink.com 1.10,2013-03-06 18:40:00,
2013-03-06 11:55:00,39.0,20.0,30.20,SE,129,7.0,-999.0,46,-99.99,,,0.00,652,weatherlink.com 1.10,2013-03-06 18:55:00,
2013-03-06 12:10:00,39.8,20.0,30.19,SE,134,4.0,-999.0,45,-99.99,,,0.00,656,weatherlink.com 1.10,2013-03-06 19:10:00,
2013-03-06 12:25:00,41.0,20.0,30.18,ESE,123,4.0,-999.0,44,-99.99,,,0.00,650,weatherlink.com 1.10,2013-03-06 19:25:00,
2013-03-06 12:40:00,42.3,21.0,30.16,SE,132,7.0,-999.0,42,-99.99,,,0.00,647,weatherlink.com 1.10,2013-03-06 19:40:00,
2013-03-06 12:55:00,43.1,21.0,30.15,South,169,4.0,-999.0,41,-99.99,,,0.00,636,weatherlink.com 1.10,2013-03-06 19:55:00,
2013-03-06 13:11:00,44.2,21.0,30.14,SE,146,4.0,-999.0,40,-99.99,,,0.00,629,weatherlink.com 1.10,2013-03-06 20:11:00,
2013-03-06 13:26:00,45.0,21.0,30.13,SE,134,2.0,-999.0,38,-99.99,,,0.00,599,weatherlink.com 1.10,2013-03-06 20:26:00,
2013-03-06 13:41:00,46.5,21.0,30.11,SSE,153,3.0,-999.0,37,-99.99,,,0.00,575,weatherlink.com 1.10,2013-03-06 20:41:00,
2013-03-06 13:56:00,46.9,21.0,30.10,South,176,3.0,-999.0,36,-99.99,,,0.00,388,weatherlink.com 1.10,2013-03-06 20:56:00,
2013-03-06 14:11:00,47.3,21.0,30.09,SSW,195,5.0,-999.0,36,-99.99,,,0.00,503,weatherlink.com 1.10,2013-03-06 21:11:00,
2013-03-06 14:26:00,47.4,21.0,30.07,SSE,160,3.0,-999.0,35,-99.99,,,0.00,454,weatherlink.com 1.10,2013-03-06 21:26:00,
2013-03-06 14:41:00,47.9,21.0,30.07,SE,134,1.0,-999.0,35,-99.99,,,0.00,411,weatherlink.com 1.10,2013-03-06 21:41:00,
2013-03-06 14:56:00,48.3,21.0,30.07,SE,126,4.0,-999.0,34,-99.99,,,0.00,436,weatherlink.com 1.10,2013-03-06 21:56:00,
2013-03-06 15:11:00,48.5,21.0,30.06,South,172,3.0,-999.0,34,-99.99,,,0.00,285,weatherlink.com 1.10,2013-03-06 22:11:00,
2013-03-06 15:26:00,48.4,21.0,30.05,SE,128,2.0,-999.0,34,-99.99,,,0.00,295,weatherlink.com 1.10,2013-03-06 22:26:00,
2013-03-06 15:41:00,48.0,21.0,30.04,SSE,148,4.0,-999.0,34,-99.99,,,0.00,163,weatherlink.com 1.10,2013-03-06 22:41:00,
2013-03-06 15:56:00,47.8,21.0,30.05,SE,144,4.0,-999.0,34,-99.99,,,0.00,114,weatherlink.com 1.10,2013-03-06 22:56:00,
2013-03-06 16:11:00,47.7,21.0,30.04,South,169,2.0,-999.0,35,-99.99,,,0.00,97,weatherlink.com 1.10,2013-03-06 23:11:00,
2013-03-06 16:26:00,47.7,21.0,30.02,South,186,4.0,-999.0,35,-99.99,,,0.00,77,weatherlink.com 1.10,2013-03-06 23:26:00,
2013-03-06 16:41:00,47.5,21.0,30.01,South,172,4.0,-999.0,35,-99.99,,,0.00,53,weatherlink.com 1.10,2013-03-06 23:41:00,
2013-03-06 16:56:00,47.3,21.0,30.01,South,173,3.0,-999.0,35,-99.99,,,0.00,65,weatherlink.com 1.10,2013-03-06 23:56:00,
2013-03-06 17:11:00,47.6,21.0,30.01,ESE,117,1.0,-999.0,35,-99.99,,,0.00,72,weatherlink.com 1.10,2013-03-07 00:11:00,
2013-03-06 17:26:00,47.2,21.0,30.01,ESE,117,1.0,-999.0,36,-99.99,,,0.00,40,weatherlink.com 1.10,2013-03-07 00:26:00,
2013-03-06 17:41:00,46.4,21.0,30.01,ESE,117,0.0,-999.0,36,-99.99,,,0.00,9,weatherlink.com 1.10,2013-03-07 00:41:00,
2013-03-06 17:56:00,45.1,20.0,30.00,ESE,117,0.0,-999.0,37,-99.99,,,0.00,0,weatherlink.com 1.10,2013-03-07 00:56:00,
2013-03-06 18:11:00,43.5,20.0,30.00,ESE,117,0.0,-999.0,39,-99.99,,,0.00,0,weatherlink.com 1.10,2013-03-07 01:11:00,
2013-03-06 18:26:00,42.0,20.0,30.00,ESE,117,0.0,-999.0,41,-99.99,,,0.00,0,weatherlink.com 1.10,2013-03-07 01:26:00,
2013-03-06 18:41:00,40.6,19.0,30.01,ESE,117,0.0,-999.0,42,-99.99,,,0.00,0,weatherlink.com 1.10,2013-03-07 01:41:00,
2013-03-06 18:56:00,39.2,19.0,30.00,ESE,117,0.0,-999.0,44,-99.99,,,0.00,0,weatherlink.com 1.10,2013-03-07 01:56:00,
2013-03-06 19:11:00,38.0,19.0,30.00,ESE,117,0.0,-999.0,46,-99.99,,,0.00,0,weatherlink.com 1.10,2013-03-07 02:11:00,
2013-03-06 19:26:00,37.5,19.0,29.98,ESE,117,1.0,-999.0,47,-99.99,,,0.00,0,weatherlink.com 1.10,2013-03-07 02:26:00,
2013-03-06 19:41:00,37.9,20.0,29.98,SE,132,2.0,-999.0,48,-99.99,,,0.00,0,weatherlink.com 1.10,2013-03-07 02:41:00,
2013-03-06 19:56:00,37.2,20.0,29.99,SSE,163,0.0,-999.0,50,-99.99,,,0.00,0,weatherlink.com 1.10,2013-03-07 02:56:00,
2013-03-06 20:11:00,39.8,21.0,29.99,South,186,2.0,-999.0,48,-99.99,,,0.00,0,weatherlink.com 1.10,2013-03-07 03:11:00,
2013-03-06 20:26:00,38.7,21.0,29.98,South,186,1.0,-999.0,50,-99.99,,,0.00,0,weatherlink.com 1.10,2013-03-07 03:26:00,
2013-03-06 20:41:00,38.2,21.0,29.98,South,186,1.0,-999.0,51,-99.99,,,0.00,0,weatherlink.com 1.10,2013-03-07 03:41:00,
2013-03-06 20:56:00,36.8,21.0,29.98,South,186,3.0,-999.0,53,-99.99,,,0.00,0,weatherlink.com 1.10,2013-03-07 03:56:00,
2013-03-06 21:11:00,34.4,20.0,29.98,SE,125,3.0,-999.0,57,-99.99,,,0.00,0,weatherlink.com 1.10,2013-03-07 04:11:00,
2013-03-06 21:26:00,35.0,21.0,29.97,ESE,122,2.0,-999.0,58,-99.99,,,0.00,0,weatherlink.com 1.10,2013-03-07 04:26:00,
2013-03-06 21:41:00,35.0,21.0,29.97,East,98,5.0,-999.0,58,-99.99,,,0.00,0,weatherlink.com 1.10,2013-03-07 04:41:00,
2013-03-06 21:56:00,34.0,22.0,29.97,ESE,119,3.0,-999.0,61,-99.99,,,0.00,0,weatherlink.com 1.10,2013-03-07 04:56:00,
2013-03-06 22:11:00,34.4,22.0,29.97,ESE,116,4.0,-999.0,62,-99.99,,,0.00,0,weatherlink.com 1.10,2013-03-07 05:11:00,
2013-03-06 22:26:00,35.1,23.0,29.97,ESE,122,4.0,-999.0,61,-99.99,,,0.00,0,weatherlink.com 1.10,2013-03-07 05:26:00,
2013-03-06 22:41:00,35.6,23.0,29.96,SE,126,3.0,-999.0,61,-99.99,,,0.00,0,weatherlink.com 1.10,2013-03-07 05:41:00,
2013-03-06 22:56:00,34.8,23.0,29.96,SE,144,3.0,-999.0,62,-99.99,,,0.00,0,weatherlink.com 1.10,2013-03-07 05:56:00,
2013-03-06 23:11:00,33.9,23.0,29.95,ESE,123,6.0,-999.0,64,-99.99,,,0.00,0,weatherlink.com 1.10,2013-03-07 06:11:00,
2013-03-06 23:26:00,33.2,23.0,29.95,SE,136,0.0,-999.0,65,-99.99,,,0.00,0,weatherlink.com 1.10,2013-03-07 06:26:00,
2013-03-06 23:42:00,32.6,23.0,29.94,SE,126,4.0,-999.0,67,-99.99,,,0.00,0,weatherlink.com 1.10,2013-03-07 06:42:00,
2013-03-06 23:57:00,32.5,23.0,29.94,ESE,117,4.0,-999.0,67,-99.99,,,0.00,0,weatherlink.com 1.10,2013-03-07 06:57:00,